STARLINK-32595, 62037

Orbit data source: Space-Track

STARLINK-32595, 62037 is a payload satellite owned by SpaceX/Seattle (US) in LEO that was launched on Thu, 21 Nov 2024 UTC via an FALCON 9 launch vehicle from the Air Force Eastern Test Range (AFETR). Payload-class satellites include a variety of spacecraft equipped with specific instruments for various scientific and technological missions. These include communications satellites like Starlink; space stations such as the ISS; scientific satellites like the Hubble; Earth observation satellites from companies like Planet Labs, Umbra, and HawkEye 360; GPS; miniature CubeSats for education and research; and military/defense satellites.

Loading next visibility...
Identifier
62037, 2024-216F
Orbit
LEO
Country
Flag of USUS
Related business
Manufacturer
SpaceX/Seattle
Mission
Operational Commercial Communications
Bus & Motor
STARLINK V2M, Unknown motor
Mass
730 kg wet, ~700 kg dry
Launch date (UTC)
2024-11-21 (9 months ago)
Launch vehicle
FALCON 9
Launch site
Air Force Eastern Test Range (AFETR)
Object type
Payload
Rocket body
Debris
Shape & HBR
Box + 2 Pan, 14.5 m
Radar Cross Section
36.964 m², Large (>1 m²)

Expand to show TLE details & history
Last TLE update: 16 hours ago

TLE from 16 hours ago
0 STARLINK-32595
1 62037U 24216F   25241.78809825  .00005365  00000-0  20470-3 0  9999
2 62037  43.0028 267.2743 0000854 301.6335  58.4433 15.27520897 44456
Epoch: 2025-08-29T18:54Z
TLE epoch observation values (Epoch: 2025-08-29T18:54:51.688Z)
Latitude
-0.00005°
Longitude
5.32715°
Altitude
482.695 km
Speed
7.626 km/s
True Right ascension
17h 49m 05s
True Declination
0° 00' 00"
Sunlit
Object was in daylight at epoch
Visualization orbit readout
Latitude
Unknown
Longitude
Unknown
Altitude
Unknown
Speed
Unknown
Apparent Right ascension
Unknown
Apparent Declination
Unknown
Sunlit
N/A
Visualization observer readout
Local Sidereal Time
02:42:51
Azimuth
Unknown
Elevation
Unknown
Doppler factor
Unknown
Orbital elements
Apogee altitude
485.757 km
Perigee altitude
484.585 km
Semi-major axis
6,863.308 km
Eccentricity
0.00009
Inclination
43.0028°
RAAN
267.2743°
Arg. of periapsis
301.6335°
True anomaly
58.45164°
Mean anomaly
58.4433°
Eccentric anomaly
58.44747°
Mean motion
3.81718 °/min
Orbital period
94.31 mins
BSTAR
0.0002047
Loading maneuver chart data...
Computing Atmospheric mass density...
Loading historical data...
Loading historical data...
Loading historical data...
Loading historical data...
Loading historical data...
Loading historical data...
Loading historical data...

Documentation

Showing up to 5 results
|